• In Uzbekistan
  • List of Countries
  • For 7 days
  • Water Temperature
  • Satellite Maps
  • Weather Map
  • Weather Widgets
  • user-avatar
    Login

    Hourly Weather Salzburg

    Today, 23 September, Saturday

    Time Temperature Precipitation Wind Pressure Humidity
    00:00 +3°C° 0 mm 1 mps 628 mmHg 85%
    01:00 +2°C° 0 mm 2 mps 628 mmHg 80%
    02:00 +2°C° 0 mm 2 mps 628 mmHg 82%
    03:00 +1°C° 0 mm 2 mps 628 mmHg 83%
    04:00 +2°C° 0 mm 1 mps 628 mmHg 85%
    05:00 +3°C° 0 mm 1 mps 628 mmHg 84%
    06:00 +3°C° 0 mm 1 mps 628 mmHg 83%
    07:00 +4°C° 0 mm 2 mps 629 mmHg 82%
    08:00 +7°C° 0 mm 1 mps 629 mmHg 76%
    09:00 +9°C° 0 mm 1 mps 630 mmHg 70%
    10:00 +11°C° 0 mm 1 mps 631 mmHg 65%
    11:00 +12°C° 0 mm 1 mps 631 mmHg 63%
    12:00 +12°C° 0 mm 1 mps 631 mmHg 61%
    13:00 +13°C° 0 mm 1 mps 631 mmHg 59%
    14:00 +13°C° 0.1 mm 1 mps 630 mmHg 63%
    15:00 +12°C° 0.1 mm 1 mps 630 mmHg 67%
    16:00 +11°C° 0.1 mm 1 mps 629 mmHg 71%
    17:00 +9°C° 0.1 mm 1 mps 629 mmHg 78%
    18:00 +7°C° 0.1 mm 1 mps 628 mmHg 86%
    19:00 +4°C° 0.1 mm 0 mps 627 mmHg 94%
    20:00 +5°C° 0 mm 1 mps 628 mmHg 94%
    21:00 +4°C° 0 mm 1 mps 628 mmHg 95%
    22:00 +4°C° 0 mm 1 mps 628 mmHg 96%
    23:00 +4°C° 0 mm 1 mps 628 mmHg 96%

    Tomorrow, 24 September, Sunday

    Time Temperature Precipitation Wind Pressure Humidity
    00:00 +4°C° 0 mm 1 mps 627 mmHg 96%
    01:00 +3°C° 0 mm 1 mps 627 mmHg 96%
    02:00 +3°C° 0 mm 1 mps 627 mmHg 96%
    03:00 +3°C° 0 mm 1 mps 627 mmHg 96%
    04:00 +3°C° 0 mm 1 mps 627 mmHg 96%
    05:00 +3°C° 0 mm 1 mps 627 mmHg 95%
    06:00 +4°C° 0 mm 1 mps 628 mmHg 94%
    07:00 +5°C° 0 mm 1 mps 628 mmHg 94%
    08:00 +6°C° 0.1 mm 1 mps 628 mmHg 89%
    09:00 +7°C° 0.1 mm 1 mps 629 mmHg 85%
    10:00 +9°C° 0.1 mm 1 mps 629 mmHg 80%
    11:00 +9°C° 0.2 mm 1 mps 629 mmHg 78%
    12:00 +10°C° 0.2 mm 1 mps 629 mmHg 76%
    13:00 +10°C° 0.2 mm 1 mps 629 mmHg 73%
    14:00 +10°C° 0.2 mm 1 mps 629 mmHg 75%
    15:00 +10°C° 0.2 mm 1 mps 629 mmHg 76%
    16:00 +9°C° 0.2 mm 1 mps 629 mmHg 78%
    17:00 +8°C° 0.1 mm 1 mps 629 mmHg 83%
    18:00 +6°C° 0.1 mm 1 mps 628 mmHg 89%
    19:00 +5°C° 0.1 mm 1 mps 628 mmHg 94%
    20:00 +4°C° 0 mm 1 mps 628 mmHg 95%
    21:00 +4°C° 0 mm 1 mps 628 mmHg 95%
    22:00 +3°C° 0 mm 1 mps 628 mmHg 96%
    23:00 +3°C° 0 mm 1 mps 628 mmHg 95%

    Day after tomorrow, 25 September, Monday

    Time Temperature Precipitation Wind Pressure Humidity
    00:00 +3°C° 0 mm 1 mps 627 mmHg 94%
    01:00 +2°C° 0 mm 1 mps 627 mmHg 94%
    02:00 +2°C° 0 mm 1 mps 627 mmHg 93%
    03:00 +2°C° 0 mm 1 mps 627 mmHg 91%
    04:00 +2°C° 0 mm 1 mps 627 mmHg 90%
    05:00 +2°C° 0 mm 1 mps 627 mmHg 89%
    06:00 +2°C° 0 mm 1 mps 627 mmHg 87%
    07:00 +3°C° 0 mm 1 mps 627 mmHg 86%
    08:00 +5°C° 0 mm 1 mps 628 mmHg 78%
    09:00 +7°C° 0 mm 0 mps 629 mmHg 70%
    10:00 +10°C° 0 mm 0 mps 630 mmHg 61%
    11:00 +10°C° 0 mm 0 mps 630 mmHg 60%
    12:00 +12°C° 0 mm 1 mps 630 mmHg 58%
    13:00 +13°C° 0 mm 1 mps 630 mmHg 56%
    14:00 +12°C° 0.2 mm 1 mps 630 mmHg 62%
    15:00 +12°C° 0.2 mm 1 mps 629 mmHg 67%
    16:00 +11°C° 0.2 mm 1 mps 629 mmHg 73%
    17:00 +9°C° 0.2 mm 1 mps 628 mmHg 79%
    18:00 +7°C° 0.2 mm 1 mps 628 mmHg 86%
    19:00 +5°C° 0.2 mm 1 mps 627 mmHg 92%
    20:00 +4°C° 0 mm 1 mps 627 mmHg 93%
    21:00 +4°C° 0 mm 1 mps 628 mmHg 93%
    22:00 +4°C° 0 mm 1 mps 628 mmHg 93%
    23:00 +3°C° 0 mm 1 mps 628 mmHg 93%

    26 September, Tuesday

    Time Temperature Precipitation Wind Pressure Humidity
    00:00 +3°C° 0 mm 1 mps 628 mmHg 93%
    01:00 +3°C° 0 mm 1 mps 627 mmHg 93%
    02:00 +3°C° 0 mm 1 mps 627 mmHg 92%
    03:00 +2°C° 0 mm 1 mps 627 mmHg 92%
    04:00 +2°C° 0 mm 1 mps 627 mmHg 92%
    05:00 +2°C° 0 mm 1 mps 627 mmHg 91%
    06:00 +3°C° 0 mm 1 mps 628 mmHg 89%
    07:00 +3°C° 0 mm 1 mps 628 mmHg 88%
    08:00 +6°C° 0 mm 1 mps 629 mmHg 79%
    09:00 +8°C° 0 mm 1 mps 629 mmHg 70%
    10:00 +11°C° 0 mm 1 mps 630 mmHg 60%
    11:00 +12°C° 0 mm 1 mps 630 mmHg 58%
    12:00 +13°C° 0 mm 2 mps 631 mmHg 55%
    13:00 +14°C° 0 mm 2 mps 631 mmHg 53%
    14:00 +13°C° 0 mm 2 mps 630 mmHg 57%
    15:00 +13°C° 0 mm 2 mps 630 mmHg 62%
    16:00 +12°C° 0 mm 2 mps 630 mmHg 67%
    17:00 +9°C° 0 mm 2 mps 629 mmHg 75%
    18:00 +8°C° 0 mm 1 mps 629 mmHg 84%
    19:00 +6°C° 0 mm 1 mps 628 mmHg 92%
    20:00 +6°C° 0 mm 1 mps 628 mmHg 92%
    21:00 +5°C° 0 mm 1 mps 628 mmHg 93%
    22:00 +4°C° 0 mm 2 mps 629 mmHg 93%
    23:00 +5°C° 0 mm 1 mps 629 mmHg 93%

    27 September, Wednesday

    Time Temperature Precipitation Wind Pressure Humidity
    00:00 +4°C° 0 mm 1 mps 629 mmHg 93%
    01:00 +4°C° 0 mm 1 mps 628 mmHg 92%
    02:00 +4°C° 0 mm 1 mps 628 mmHg 92%
    03:00 +3°C° 0 mm 1 mps 628 mmHg 92%
    04:00 +3°C° 0 mm 1 mps 628 mmHg 92%
    05:00 +4°C° 0 mm 1 mps 629 mmHg 91%
    06:00 +4°C° 0 mm 1 mps 629 mmHg 90%
    07:00 +4°C° 0 mm 1 mps 629 mmHg 89%
    08:00 +7°C° 0 mm 1 mps 630 mmHg 80%
    09:00 +10°C° 0 mm 1 mps 631 mmHg 71%
    10:00 +12°C° 0 mm 1 mps 632 mmHg 62%
    11:00 +13°C° 0.1 mm 1 mps 632 mmHg 61%
    12:00 +13°C° 0.1 mm 1 mps 633 mmHg 60%
    13:00 +14°C° 0.1 mm 1 mps 633 mmHg 59%
    14:00 +13°C° 0.4 mm 1 mps 632 mmHg 64%
    15:00 +13°C° 0.4 mm 1 mps 632 mmHg 69%
    16:00 +12°C° 0.4 mm 1 mps 632 mmHg 75%
    17:00 +11°C° 0.4 mm 1 mps 631 mmHg 81%
    18:00 +9°C° 0.4 mm 1 mps 631 mmHg 87%
    19:00 +6°C° 0.4 mm 0 mps 631 mmHg 93%
    20:00 +6°C° 0.1 mm 1 mps 631 mmHg 93%
    21:00 +6°C° 0.1 mm 1 mps 631 mmHg 93%
    22:00 +5°C° 0.1 mm 1 mps 631 mmHg 94%
    23:00 +5°C° 0 mm 1 mps 631 mmHg 93%

    28 September, Thursday

    Time Temperature Precipitation Wind Pressure Humidity
    00:00 +5°C° 0 mm 1 mps 631 mmHg 93%
    01:00 +4°C° 0 mm 1 mps 631 mmHg 93%
    02:00 +4°C° 0 mm 1 mps 631 mmHg 92%
    03:00 +4°C° 0 mm 1 mps 631 mmHg 92%
    04:00 +4°C° 0 mm 1 mps 631 mmHg 91%
    05:00 +4°C° 0 mm 1 mps 631 mmHg 90%
    06:00 +5°C° 0 mm 1 mps 632 mmHg 89%
    07:00 +5°C° 0 mm 1 mps 632 mmHg 88%
    08:00 +8°C° 0 mm 1 mps 633 mmHg 80%
    09:00 +10°C° 0 mm 1 mps 634 mmHg 72%
    10:00 +12°C° 0 mm 0 mps 635 mmHg 63%
    11:00 +14°C° 0.1 mm 1 mps 635 mmHg 62%
    12:00 +14°C° 0.1 mm 1 mps 635 mmHg 60%
    13:00 +15°C° 0.1 mm 1 mps 635 mmHg 59%
    14:00 +14°C° 0.5 mm 1 mps 635 mmHg 65%
    15:00 +13°C° 0.5 mm 1 mps 634 mmHg 71%
    16:00 +13°C° 0.5 mm 1 mps 634 mmHg 77%
    17:00 +11°C° 0.2 mm 1 mps 634 mmHg 83%
    18:00 +9°C° 0.2 mm 1 mps 633 mmHg 89%
    19:00 +7°C° 0.2 mm 1 mps 633 mmHg 95%
    20:00 +7°C° 0 mm 1 mps 633 mmHg 95%
    21:00 +6°C° 0 mm 1 mps 633 mmHg 96%
    22:00 +6°C° 0 mm 1 mps 633 mmHg 96%
    23:00 +6°C° 0 mm 1 mps 633 mmHg 96%
    Show more